| time (UTC) | temp F | wind direction | speed knots | gust knots | rain 1hr in | rain 24hr in | rain mn in | humidity % | barometer mb |
| 20260503225257 | 59 | 215 | 0.9 | 2.6 | 0.00 | 0.06 | 0.00 | 69 | 1006.0 |
| 20260503224800 | 59 | 202 | 0.9 | 2.6 | 0.00 | 0.06 | 0.00 | 69 | 1005.9 |
| 20260503224258 | 59 | 207 | 0.9 | 2.6 | 0.00 | 0.06 | 0.00 | 69 | 1005.8 |
| 20260503223801 | 59 | 204 | 0.9 | 2.6 | 0.00 | 0.06 | 0.00 | 69 | 1005.7 |
| 20260503223524 | 59 | 197 | 0.0 | 2.6 | 0.00 | 0.06 | 0.00 | 69 | 1005.7 |
| 20260503222800 | 59 | 197 | 0.9 | 1.7 | 0.00 | 0.06 | 0.00 | 69 | 1005.5 |
| 20260503221801 | 59 | 197 | 0.9 | 2.6 | 0.00 | 0.06 | 0.00 | 69 | 1005.7 |
| 20260503221258 | 59 | 197 | 0.9 | 2.6 | 0.00 | 0.06 | 0.00 | 69 | 1005.7 |
| 20260503220801 | 59 | 196 | 0.9 | 2.6 | 0.00 | 0.06 | 0.00 | 69 | 1005.8 |
| 20260503215801 | 59 | 197 | 1.7 | 2.6 | 0.00 | 0.06 | 0.06 | 69 | 1005.7 |
| 20260503215258 | 60 | 197 | 0.9 | 2.6 | 0.00 | 0.06 | 0.06 | 69 | 1005.7 |
| 20260503214801 | 60 | 196 | 0.9 | 1.7 | 0.00 | 0.06 | 0.06 | 69 | 1005.7 |
| 20260503214257 | 60 | 196 | 0.9 | 2.6 | 0.00 | 0.06 | 0.06 | 69 | 1005.7 |
| 20260503213800 | 60 | 196 | 1.7 | 2.6 | 0.00 | 0.06 | 0.06 | 69 | 1005.8 |
| 20260503213256 | 60 | 196 | 1.7 | 2.6 | 0.00 | 0.06 | 0.06 | 69 | 1005.7 |
| 20260503213033 | 60 | 190 | 1.7 | 2.6 | 0.00 | 0.06 | 0.06 | 69 | 1005.7 |
| 20260503212254 | 60 | 186 | 1.7 | 2.6 | 0.00 | 0.06 | 0.06 | 69 | 1005.7 |
| 20260503211758 | 60 | 141 | 0.9 | 2.6 | 0.00 | 0.06 | 0.06 | 69 | 1005.7 |
| 20260503211255 | 60 | 139 | 0.0 | 0.0 | 0.00 | 0.06 | 0.06 | 69 | 1005.7 |
| 20260503210521 | 61 | 139 | 0.0 | 0.0 | 0.00 | 0.06 | 0.06 | 69 | 1005.6 |
| 20260503210027 | 61 | 139 | 0.0 | 0.0 | 0.00 | 0.06 | 0.06 | 69 | 1005.8 |
| 20260503205255 | 61 | 139 | 0.0 | 1.7 | 0.00 | 0.06 | 0.06 | 69 | 1005.8 |
| 20260503204758 | 61 | 139 | 0.0 | 1.7 | 0.00 | 0.06 | 0.06 | 69 | 1005.8 |
| 20260503204255 | 61 | 139 | 0.9 | 2.6 | 0.00 | 0.06 | 0.06 | 69 | 1005.8 |
| 20260503204033 | 61 | 139 | 0.9 | 2.6 | 0.00 | 0.06 | 0.06 | 69 | 1005.8 |
| 20260503203255 | 61 | 138 | 0.9 | 1.7 | 0.00 | 0.06 | 0.06 | 69 | 1005.8 |
| 20260503202757 | 61 | 138 | 0.9 | 1.7 | 0.01 | 0.06 | 0.06 | 69 | 1005.8 |
| 20260503202514 | 61 | 138 | 1.7 | 3.5 | 0.01 | 0.06 | 0.06 | 69 | 1005.8 |
| 20260503202030 | 62 | 138 | 1.7 | 3.5 | 0.01 | 0.06 | 0.06 | 70 | 1005.8 |
| 20260503201255 | 62 | 73 | 0.9 | 2.6 | 0.01 | 0.06 | 0.06 | 71 | 1005.7 |
| 20260503200757 | 62 | 73 | 0.9 | 2.6 | 0.01 | 0.06 | 0.06 | 71 | 1005.7 |
| 20260503200033 | 62 | 71 | 0.0 | 1.7 | 0.02 | 0.06 | 0.06 | 71 | 1005.5 |
| 20260503195255 | 62 | 71 | 0.9 | 2.6 | 0.03 | 0.07 | 0.06 | 71 | 1005.4 |
| 20260503194758 | 62 | 71 | 0.9 | 2.6 | 0.04 | 0.07 | 0.06 | 71 | 1005.4 |
| 20260503194255 | 62 | 71 | 0.9 | 1.7 | 0.04 | 0.07 | 0.06 | 71 | 1005.5 |
| 20260503193758 | 62 | 71 | 0.9 | 2.6 | 0.04 | 0.07 | 0.06 | 71 | 1005.2 |
| 20260503193254 | 62 | 69 | 0.9 | 2.6 | 0.04 | 0.07 | 0.06 | 71 | 1005.3 |
| 20260503192757 | 62 | 69 | 1.7 | 3.5 | 0.03 | 0.06 | 0.06 | 71 | 1005.2 |
| 20260503192255 | 62 | 69 | 1.7 | 3.5 | 0.03 | 0.06 | 0.06 | 71 | 1005.2 |
| 20260503191757 | 63 | 68 | 0.9 | 6.1 | 0.03 | 0.06 | 0.06 | 71 | 1005.2 |
| 20260503191237 | 63 | 291 | 0.9 | 6.1 | 0.03 | 0.06 | 0.06 | 71 | 1005.0 |
| 20260503191002 | 63 | 295 | 0.9 | 7.0 | 0.03 | 0.06 | 0.06 | 71 | 1004.9 |
| 20260503190237 | 63 | 328 | 0.9 | 7.0 | 0.02 | 0.06 | 0.05 | 71 | 1004.9 |
| 20260503190004 | 63 | 288 | 0.0 | 5.2 | 0.02 | 0.05 | 0.04 | 71 | 1004.8 |
| 20260503185453 | 63 | 288 | 0.9 | 6.1 | 0.02 | 0.04 | 0.03 | 71 | 1004.8 |
| 20260503184728 | 64 | 292 | 1.7 | 6.1 | 0.01 | 0.03 | 0.02 | 70 | 1004.7 |
| 20260503184228 | 64 | 265 | 0.9 | 2.6 | 0.01 | 0.03 | 0.02 | 71 | 1004.6 |
| 20260503183728 | 64 | 266 | 0.9 | 2.6 | 0.01 | 0.03 | 0.02 | 70 | 1010.9 |
| 20260503183228 | 64 | 263 | 0.0 | 1.7 | 0.01 | 0.03 | 0.02 | 70 | 1004.4 |
| 20260503182729 | 64 | 263 | 0.0 | 1.7 | 0.01 | 0.03 | 0.02 | 70 | 1004.4 |
| 20260503182226 | 64 | 263 | 0.0 | 1.7 | 0.01 | 0.03 | 0.02 | 70 | 1004.4 |
| 20260503181712 | 64 | 262 | 0.0 | 0.9 | 0.01 | 0.03 | 0.02 | 70 | 1010.7 |
| 20260503181212 | 65 | 261 | 0.0 | 2.6 | 0.01 | 0.03 | 0.02 | 70 | 1004.3 |
| 20260503180712 | 65 | 261 | 0.0 | 2.6 | 0.01 | 0.03 | 0.02 | 70 | 1004.2 |
| 20260503180433 | 65 | 261 | 0.9 | 3.5 | 0.01 | 0.03 | 0.02 | 69 | 1004.2 |
| 20260503175929 | 65 | 261 | 1.7 | 3.5 | 0.00 | 0.02 | 0.02 | 69 | 1004.2 |
| 20260503175212 | 65 | 267 | 1.7 | 3.5 | 0.00 | 0.02 | 0.02 | 69 | 1004.2 |
| 20260503174712 | 65 | 277 | 0.9 | 3.5 | 0.00 | 0.02 | 0.02 | 68 | 1004.2 |
| 20260503174430 | 65 | 5 | 0.0 | 0.0 | 0.00 | 0.02 | 0.02 | 68 | 1004.0 |
| 20260503173656 | 66 | 5 | 0.0 | 1.7 | 0.00 | 0.02 | 0.02 | 68 | 1003.9 |
| 20260503173156 | 66 | 5 | 0.0 | 1.7 | 0.00 | 0.02 | 0.02 | 68 | 1004.1 |
| 20260503172656 | 66 | 5 | 0.9 | 3.5 | 0.00 | 0.02 | 0.02 | 68 | 1004.1 |
| 20260503172157 | 66 | 5 | 0.9 | 3.5 | 0.00 | 0.02 | 0.02 | 67 | 1004.1 |
| 20260503171656 | 66 | 5 | 0.9 | 3.5 | 0.00 | 0.02 | 0.02 | 68 | 1004.1 |
| 20260503171156 | 66 | 9 | 0.9 | 3.5 | 0.00 | 0.02 | 0.02 | 68 | 1004.1 |
| 20260503170657 | 67 | 13 | 0.9 | 3.5 | 0.00 | 0.03 | 0.02 | 67 | 1004.1 |
| 20260503170157 | 67 | 13 | 0.9 | 3.5 | 0.00 | 0.03 | 0.02 | 67 | 1004.1 |
| 20260503160146 | 67 | 96 | 1.7 | 5.2 | 0.00 | 0.06 | 0.02 | 66 | 1004.1 |
| 20260503150637 | 64 | 34 | 0.9 | 2.6 | 0.00 | 0.06 | 0.02 | 67 | 1005.1 |
| 20260503150406 | 64 | 24 | 0.0 | 2.6 | 0.00 | 0.06 | 0.02 | 66 | 1005.3 |
| 20260503140111 | 62 | 151 | 2.6 | 5.2 | 0.02 | 0.06 | 0.02 | 70 | 1006.2 |
| 20260503131049 | 64 | 314 | 7.8 | 19.1 | 0.00 | 0.04 | 0.00 | 69 | 1006.5 |
| 20260503130549 | 66 | 290 | 7.0 | 14.8 | 0.00 | 0.04 | 0.00 | 69 | 1006.5 |
| 20260503130105 | 68 | 302 | 7.0 | 14.8 | 0.00 | 0.04 | 0.00 | 68 | 1006.4 |
| 20260503110539 | 71 | 103 | 7.0 | 12.2 | 0.00 | 0.04 | 0.00 | 71 | 1006.2 |
| 20260503090236 | 65 | 17 | 0.9 | 3.5 | 0.00 | 0.04 | 0.00 | 67 | 1006.7 |
| 20260503081017 | 62 | 327 | 0.0 | 1.7 | 0.00 | 0.04 | 0.00 | 69 | 1006.8 |
| 20260503080531 | 62 | 327 | 0.0 | 1.7 | 0.00 | 0.04 | 0.00 | 69 | 1006.8 |
| 20260503072514 | 59 | 213 | 0.0 | 1.7 | 0.00 | 0.04 | 0.00 | 70 | 1007.2 |
| 20260503072014 | 58 | 213 | 0.0 | 1.7 | 0.00 | 0.04 | 0.00 | 70 | 1007.1 |
| 20260503071733 | 58 | 213 | 0.0 | 0.0 | 0.00 | 0.04 | 0.00 | 70 | 1007.2 |
| 20260503070512 | 57 | 213 | 0.0 | 0.0 | 0.00 | 0.04 | 0.00 | 70 | 1007.1 |
| 20260503060235 | 55 | 213 | 0.9 | 1.7 | 0.00 | 0.04 | 0.00 | 73 | 1006.7 |
| 20260503055010 | 55 | 213 | 0.9 | 1.7 | 0.00 | 0.04 | 0.00 | 73 | 1006.7 |
| 20260503054733 | 55 | 213 | 0.9 | 2.6 | 0.00 | 0.04 | 0.00 | 73 | 1006.7 |
| 20260503054010 | 55 | 213 | 0.9 | 2.6 | 0.00 | 0.04 | 0.00 | 73 | 1006.7 |
| 20260503053508 | 55 | 214 | 0.9 | 3.5 | 0.00 | 0.04 | 0.00 | 73 | 1006.7 |
| 20260503053010 | 55 | 214 | 1.7 | 3.5 | 0.00 | 0.04 | 0.00 | 73 | 1006.8 |
| 20260503052518 | 55 | 217 | 1.7 | 2.6 | 0.00 | 0.04 | 0.00 | 73 | 1006.8 |
| 20260503052234 | 55 | 216 | 0.9 | 2.6 | 0.00 | 0.04 | 0.00 | 73 | 1006.8 |
| 20260503051508 | 55 | 215 | 0.0 | 0.9 | 0.00 | 0.04 | 0.00 | 73 | 1006.7 |
| 20260503051010 | 55 | 215 | 0.0 | 0.9 | 0.00 | 0.04 | 0.00 | 73 | 1006.7 |
| 20260503050508 | 55 | 215 | 0.0 | 2.6 | 0.00 | 0.04 | 0.00 | 73 | 1006.6 |
| 20260503050010 | 55 | 215 | 0.0 | 2.6 | 0.00 | 0.04 | 0.00 | 73 | 1006.5 |
| 20260503045507 | 55 | 234 | 0.0 | 0.9 | 0.00 | 0.04 | 0.00 | 73 | 1007.0 |
| 20260503045010 | 55 | 235 | 0.0 | 0.9 | 0.00 | 0.04 | 0.00 | 73 | 1006.5 |
| 20260503044507 | 55 | 218 | 0.9 | 1.7 | 0.00 | 0.04 | 0.00 | 73 | 1006.5 |
| 20260503044229 | 55 | 218 | 0.9 | 1.7 | 0.00 | 0.04 | 0.00 | 73 | 1006.6 |
| 20260503043010 | 55 | 218 | 0.9 | 1.7 | 0.00 | 0.04 | 0.00 | 73 | 1006.6 |
| 20260503042727 | 56 | 218 | 0.9 | 2.6 | 0.00 | 0.04 | 0.00 | 73 | 1006.6 |
| 20260503042232 | 56 | 218 | 0.9 | 2.6 | 0.00 | 0.04 | 0.00 | 73 | 1006.8 |
| 20260503041519 | 56 | 218 | 0.9 | 2.6 | 0.00 | 0.04 | 0.00 | 73 | 1006.7 |
| 20260503041009 | 56 | 218 | 0.0 | 2.6 | 0.00 | 0.04 | 0.00 | 73 | 1006.8 |
| 20260503040507 | 56 | 282 | 0.0 | 0.0 | 0.00 | 0.04 | 0.00 | 73 | 1006.8 |
| 20260503040009 | 56 | 282 | 0.0 | 0.0 | 0.00 | 0.04 | 0.00 | 73 | 1006.7 |
| 20260503035507 | 56 | 282 | 0.0 | 2.6 | 0.00 | 0.04 | 0.00 | 73 | 1006.7 |
| 20260503035010 | 56 | 282 | 0.9 | 2.6 | 0.00 | 0.04 | 0.00 | 73 | 1006.7 |
| 20260503034507 | 56 | 282 | 0.9 | 2.6 | 0.00 | 0.04 | 0.00 | 73 | 1006.8 |
| 20260503034010 | 56 | 283 | 0.9 | 2.6 | 0.00 | 0.04 | 0.00 | 73 | 1006.7 |
| 20260503033506 | 56 | 283 | 0.9 | 4.3 | 0.00 | 0.04 | 0.00 | 73 | 1006.6 |
| 20260503033009 | 56 | 283 | 0.9 | 4.3 | 0.00 | 0.04 | 0.00 | 73 | 1006.6 |
| 20260503032506 | 57 | 300 | 0.0 | 1.7 | 0.00 | 0.04 | 0.00 | 73 | 1006.6 |
| 20260503032009 | 56 | 300 | 0.9 | 2.6 | 0.00 | 0.04 | 0.00 | 73 | 1006.6 |
| 20260503031506 | 57 | 300 | 0.9 | 2.6 | 0.00 | 0.04 | 0.00 | 73 | 1006.6 |
| 20260503031009 | 57 | 301 | 0.0 | 1.7 | 0.00 | 0.04 | 0.00 | 73 | 1006.7 |
| 20260503030520 | 57 | 301 | 0.0 | 1.7 | 0.00 | 0.04 | 0.00 | 73 | 1006.7 |
| 20260503030234 | 57 | 301 | 0.0 | 1.7 | 0.00 | 0.04 | 0.00 | 73 | 1006.8 |
| 20260503025726 | 57 | 301 | 0.0 | 1.7 | 0.00 | 0.04 | 0.00 | 73 | 1006.8 |
| 20260503025009 | 57 | 301 | 0.9 | 2.6 | 0.00 | 0.04 | 0.00 | 73 | 1006.9 |
| 20260503024506 | 57 | 301 | 0.0 | 2.6 | 0.00 | 0.04 | 0.00 | 73 | 1006.8 |
| 20260503024010 | 57 | 150 | 0.0 | 0.0 | 0.00 | 0.04 | 0.00 | 73 | 1007.0 |
| 20260503023506 | 57 | 150 | 0.0 | 0.0 | 0.00 | 0.04 | 0.00 | 73 | 1006.9 |
| 20260503023010 | 58 | 150 | 0.0 | 0.0 | 0.00 | 0.04 | 0.00 | 73 | 1006.8 |
| 20260503022507 | 58 | 150 | 0.0 | 0.9 | 0.00 | 0.04 | 0.00 | 73 | 1006.9 |
| 20260503022010 | 58 | 150 | 0.0 | 0.9 | 0.00 | 0.04 | 0.00 | 73 | 1007.0 |
| 20260503021506 | 58 | 150 | 0.0 | 0.9 | 0.00 | 0.04 | 0.00 | 73 | 1007.2 |
| 20260503021010 | 58 | 150 | 0.0 | 0.9 | 0.00 | 0.04 | 0.00 | 73 | 1007.1 |
| 20260503020507 | 58 | 150 | 0.9 | 2.6 | 0.00 | 0.04 | 0.00 | 73 | 1007.2 |
| 20260503020010 | 58 | 150 | 0.9 | 2.6 | 0.00 | 0.04 | 0.00 | 73 | 1007.1 |
| 20260503015506 | 58 | 150 | 0.9 | 1.7 | 0.00 | 0.04 | 0.00 | 73 | 1007.1 |
| 20260503015010 | 59 | 150 | 0.9 | 1.7 | 0.00 | 0.04 | 0.00 | 73 | 1007.2 |
| 20260503014506 | 59 | 150 | 0.0 | 1.7 | 0.00 | 0.04 | 0.00 | 73 | 1007.2 |
| 20260503014237 | 59 | 150 | 0.0 | 1.7 | 0.00 | 0.04 | 0.00 | 73 | 1007.2 |
| 20260503013507 | 59 | 150 | 0.9 | 4.3 | 0.00 | 0.04 | 0.00 | 73 | 1007.1 |
| 20260503013009 | 59 | 150 | 0.9 | 4.3 | 0.00 | 0.04 | 0.00 | 72 | 1007.2 |
| 20260503012725 | 59 | 152 | 0.9 | 3.5 | 0.00 | 0.04 | 0.00 | 72 | 1007.2 |
| 20260503012010 | 59 | 188 | 0.9 | 3.5 | 0.00 | 0.04 | 0.00 | 72 | 1007.3 |
| 20260503011507 | 60 | 189 | 0.9 | 3.5 | 0.00 | 0.04 | 0.00 | 72 | 1007.3 |
| 20260503011009 | 60 | 299 | 0.9 | 2.6 | 0.00 | 0.04 | 0.00 | 72 | 1007.3 |
| 20260503010506 | 60 | 299 | 0.0 | 2.6 | 0.00 | 0.04 | 0.00 | 72 | 1007.5 |
| 20260503010011 | 60 | 299 | 0.0 | 0.0 | 0.00 | 0.04 | 0.00 | 72 | 1007.4 |
| 20260503005507 | 61 | 298 | 0.0 | 0.0 | 0.00 | 0.04 | 0.00 | 72 | 1007.4 |
| 20260503005010 | 61 | 298 | 0.0 | 1.7 | 0.00 | 0.04 | 0.00 | 72 | 1007.4 |
| 20260503004507 | 61 | 299 | 0.9 | 1.7 | 0.00 | 0.04 | 0.00 | 72 | 1007.5 |
| 20260503004010 | 61 | 298 | 0.9 | 1.7 | 0.00 | 0.04 | 0.00 | 72 | 1007.5 |
| 20260503003507 | 62 | 299 | 1.7 | 3.5 | 0.00 | 0.04 | 0.00 | 72 | 1007.6 |
| 20260503003009 | 62 | 299 | 1.7 | 3.5 | 0.00 | 0.04 | 0.00 | 72 | 1007.6 |
| 20260503002507 | 62 | 300 | 2.6 | 6.1 | 0.00 | 0.04 | 0.00 | 72 | 1007.6 |
| 20260503002009 | 62 | 298 | 2.6 | 6.1 | 0.00 | 0.04 | 0.00 | 72 | 1007.7 |
| 20260503001506 | 62 | 304 | 2.6 | 7.0 | 0.00 | 0.04 | 0.00 | 72 | 1007.7 |
| 20260503001009 | 62 | 305 | 3.5 | 7.0 | 0.00 | 0.04 | 0.00 | 71 | 1007.7 |
| 20260503000507 | 63 | 292 | 4.3 | 8.7 | 0.00 | 0.04 | 0.00 | 71 | 1007.8 |
| 20260503000008 | 63 | 304 | 3.5 | 8.7 | 0.00 | 0.04 | 0.00 | 71 | 1007.8 |
| 20260502235505 | 63 | 284 | 1.7 | 5.2 | 0.00 | 0.04 | 0.00 | 70 | 1007.8 |
| 20260502235008 | 63 | 232 | 0.0 | 1.7 | 0.00 | 0.04 | 0.00 | 69 | 1007.8 |
| 20260502234505 | 63 | 225 | 0.0 | 3.5 | 0.00 | 0.04 | 0.00 | 69 | 1007.8 |
| 20260502234008 | 63 | 225 | 0.9 | 3.5 | 0.00 | 0.04 | 0.00 | 69 | 1007.8 |
| 20260502233506 | 63 | 257 | 1.7 | 6.1 | 0.00 | 0.04 | 0.00 | 69 | 1007.8 |
| 20260502233008 | 63 | 157 | 2.6 | 6.1 | 0.00 | 0.04 | 0.00 | 69 | 1007.8 |
| 20260502232728 | 63 | 196 | 4.3 | 8.7 | 0.00 | 0.04 | 0.00 | 69 | 1007.8 |
| 20260502232012 | 63 | 181 | 6.1 | 8.7 | 0.00 | 0.04 | 0.00 | 70 | 1007.7 |
| 20260502231506 | 63 | 206 | 6.1 | 12.2 | 0.00 | 0.04 | 0.00 | 70 | 1007.7 |
| 20260502231009 | 62 | 182 | 6.1 | 12.2 | 0.00 | 0.04 | 0.00 | 70 | 1007.8 |
| 20260502230505 | 62 | 137 | 7.0 | 12.2 | 0.00 | 0.04 | 0.00 | 70 | 1007.6 |
| 20260502230009 | 62 | 246 | 6.1 | 12.2 | 0.00 | 0.04 | 0.00 | 70 | 1007.6 |